| time (UTC) | temp F | wind direction | speed MPH | gust MPH | rain 1hr in | rain 24hr in | rain mn in | humidity % | barometer mb |
| 20260510094606 | 44 | 255 | 4.0 | 8.0 | 0.00 | 0.09 | 0.00 | 74 | 1007.3 |
| 20260510093605 | 45 | 254 | 2.0 | 7.0 | 0.00 | 0.09 | 0.00 | 73 | 1007.2 |
| 20260510092605 | 45 | 260 | 3.0 | 7.0 | 0.00 | 0.09 | 0.00 | 73 | 1007.1 |
| 20260510091605 | 46 | 284 | 4.0 | 7.0 | 0.00 | 0.09 | 0.00 | 70 | 1006.7 |
| 20260510085606 | 47 | 276 | 7.0 | 12.0 | 0.00 | 0.09 | 0.00 | 68 | 1006.4 |
| 20260510084605 | 48 | 250 | 4.0 | 10.0 | 0.00 | 0.09 | 0.00 | 68 | 1006.3 |
| 20260510083606 | 48 | 277 | 3.0 | 10.0 | 0.00 | 0.09 | 0.00 | 69 | 1006.3 |
| 20260510082605 | 48 | 258 | 3.0 | 13.0 | 0.00 | 0.09 | 0.00 | 69 | 1006.2 |
| 20260510081605 | 48 | 298 | 4.0 | 9.0 | 0.00 | 0.09 | 0.00 | 68 | 1006.3 |
| 20260510075605 | 48 | 248 | 6.0 | 13.0 | 0.00 | 0.09 | 0.00 | 69 | 1006.0 |
| 20260510074606 | 48 | 255 | 4.0 | 12.0 | 0.00 | 0.09 | 0.00 | 71 | 1005.8 |
| 20260510073605 | 48 | 262 | 6.0 | 12.0 | 0.00 | 0.09 | 0.00 | 73 | 1005.7 |
| 20260510072606 | 48 | 244 | 3.0 | 9.0 | 0.00 | 0.09 | 0.00 | 77 | 1005.6 |
| 20260510071606 | 48 | 253 | 5.0 | 8.0 | 0.00 | 0.09 | 0.00 | 79 | 1005.5 |
| 20260510065606 | 48 | 260 | 2.0 | 5.0 | 0.00 | 0.09 | 0.00 | 87 | 1005.5 |
| 20260510063605 | 48 | 257 | 3.0 | 9.0 | 0.00 | 0.09 | 0.00 | 89 | 1005.4 |
| 20260510062606 | 48 | 259 | 3.0 | 6.0 | 0.00 | 0.09 | 0.00 | 91 | 1005.2 |
| 20260510060605 | 47 | 258 | 4.0 | 12.0 | 0.00 | 0.09 | 0.00 | 98 | 1005.1 |
| 20260510055606 | 45 | 265 | 2.0 | 5.0 | 0.00 | 0.09 | 0.00 | 98 | 1005.1 |
| 20260510054605 | 44 | 236 | 3.0 | 6.0 | 0.00 | 0.09 | 0.00 | 96 | 1005.1 |
| 20260510053605 | 44 | 215 | 1.0 | 2.0 | 0.00 | 0.09 | 0.00 | 96 | 1004.7 |
| 20260510052605 | 45 | 215 | 0.0 | 2.0 | 0.00 | 0.09 | 0.00 | 95 | 1004.4 |
| 20260510050606 | 46 | 215 | 1.0 | 3.0 | 0.00 | 0.09 | 0.00 | 96 | 1004.4 |
| 20260510045605 | 47 | 215 | 0.0 | 1.0 | 0.00 | 0.09 | 0.00 | 96 | 1004.2 |
| 20260510043605 | 47 | 214 | 1.0 | 2.0 | 0.00 | 0.09 | 0.00 | 96 | 1004.2 |
| 20260510042605 | 48 | 214 | 1.0 | 2.0 | 0.00 | 0.09 | 0.00 | 96 | 1003.9 |
| 20260510041606 | 48 | 213 | 2.0 | 3.0 | 0.00 | 0.09 | 0.00 | 96 | 1003.9 |
| 20260510034605 | 49 | 218 | 2.0 | 5.0 | 0.00 | 0.09 | 0.09 | 96 | 1003.5 |
| 20260510033605 | 49 | 220 | 2.0 | 5.0 | 0.00 | 0.09 | 0.09 | 95 | 1003.5 |
| 20260510032605 | 49 | 226 | 2.0 | 3.0 | 0.00 | 0.09 | 0.09 | 95 | 1003.2 |
| 20260510031605 | 50 | 254 | 2.0 | 5.0 | 0.00 | 0.09 | 0.09 | 95 | 1003.1 |
| 20260510030605 | 50 | 240 | 3.0 | 6.0 | 0.00 | 0.09 | 0.09 | 94 | 1003.1 |
| 20260510025605 | 51 | 236 | 3.0 | 6.0 | 0.01 | 0.09 | 0.09 | 95 | 1003.2 |
| 20260510023605 | 51 | 194 | 4.0 | 8.0 | 0.01 | 0.09 | 0.09 | 94 | 1003.0 |
| 20260510021605 | 52 | 215 | 5.0 | 12.0 | 0.01 | 0.09 | 0.09 | 94 | 1003.1 |
| 20260510020605 | 52 | 228 | 5.0 | 12.0 | 0.01 | 0.09 | 0.09 | 94 | 1002.9 |
| 20260510015605 | 53 | 231 | 4.0 | 10.0 | 0.00 | 0.09 | 0.09 | 94 | 1002.7 |
| 20260510014605 | 53 | 223 | 6.0 | 16.0 | 0.00 | 0.09 | 0.09 | 93 | 1002.7 |
| 20260510013605 | 53 | 200 | 7.0 | 12.0 | 0.01 | 0.09 | 0.09 | 93 | 1002.5 |
| 20260510012605 | 54 | 195 | 6.0 | 13.0 | 0.05 | 0.09 | 0.09 | 93 | 1002.6 |
| 20260510011606 | 54 | 198 | 5.0 | 12.0 | 0.07 | 0.09 | 0.09 | 93 | 1002.6 |
| 20260510010605 | 54 | 203 | 4.0 | 7.0 | 0.09 | 0.09 | 0.09 | 92 | 1002.3 |
| 20260510005605 | 55 | 214 | 2.0 | 8.0 | 0.09 | 0.09 | 0.09 | 92 | 1002.1 |
| 20260510004605 | 55 | 197 | 4.0 | 7.0 | 0.09 | 0.09 | 0.09 | 90 | 1001.9 |
| 20260510002605 | 56 | 207 | 5.0 | 12.0 | 0.04 | 0.04 | 0.04 | 86 | 1002.2 |
| 20260510001605 | 57 | 260 | 6.0 | 10.0 | 0.02 | 0.02 | 0.02 | 82 | 1001.8 |
| 20260510000605 | 58 | 196 | 2.0 | 5.0 | 0.00 | 0.00 | 0.00 | 78 | 1001.2 |
| 20260509235605 | 58 | 111 | 2.0 | 7.0 | 0.00 | 0.00 | 0.00 | 77 | 1000.9 |
| 20260509234605 | 58 | 139 | 3.0 | 7.0 | 0.00 | 0.00 | 0.00 | 76 | 1000.9 |
| 20260509232605 | 58 | 147 | 3.0 | 10.0 | 0.00 | 0.00 | 0.00 | 76 | 1001.0 |
| 20260509231605 | 59 | 116 | 6.0 | 9.0 | 0.00 | 0.00 | 0.00 | 75 | 1000.8 |
| 20260509230605 | 59 | 134 | 5.0 | 12.0 | 0.00 | 0.00 | 0.00 | 75 | 1001.0 |
| 20260509225604 | 59 | 126 | 5.0 | 12.0 | 0.00 | 0.00 | 0.00 | 74 | 1001.2 |
| 20260509224605 | 59 | 111 | 5.0 | 12.0 | 0.00 | 0.00 | 0.00 | 73 | 1001.6 |
| 20260509223608 | 60 | 131 | 3.0 | 6.0 | 0.00 | 0.00 | 0.00 | 72 | 1002.2 |
| 20260509222605 | 60 | 191 | 2.0 | 8.0 | 0.00 | 0.00 | 0.00 | 71 | 1002.5 |
| 20260509221605 | 60 | 155 | 6.0 | 13.0 | 0.00 | 0.00 | 0.00 | 69 | 1002.3 |
| 20260509220606 | 61 | 173 | 6.0 | 12.0 | 0.00 | 0.00 | 0.00 | 69 | 1002.2 |
| 20260509215605 | 61 | 180 | 7.0 | 18.0 | 0.00 | 0.00 | 0.00 | 69 | 1002.2 |
| 20260509214605 | 61 | 187 | 8.0 | 12.0 | 0.00 | 0.00 | 0.00 | 69 | 1002.0 |
| 20260509213605 | 61 | 183 | 4.0 | 13.0 | 0.00 | 0.00 | 0.00 | 67 | 1001.9 |
| 20260509212605 | 62 | 149 | 6.0 | 12.0 | 0.00 | 0.00 | 0.00 | 66 | 1002.2 |
| 20260509211605 | 62 | 149 | 5.0 | 14.0 | 0.00 | 0.00 | 0.00 | 66 | 1002.1 |
| 20260509210605 | 62 | 141 | 6.0 | 15.0 | 0.00 | 0.00 | 0.00 | 65 | 1001.9 |
| 20260509205605 | 63 | 146 | 7.0 | 12.0 | 0.00 | 0.00 | 0.00 | 63 | 1002.0 |
| 20260509204606 | 63 | 151 | 7.0 | 12.0 | 0.00 | 0.00 | 0.00 | 62 | 1002.1 |
| 20260509203605 | 64 | 135 | 6.0 | 15.0 | 0.00 | 0.00 | 0.00 | 60 | 1001.9 |
| 20260509202605 | 64 | 133 | 6.0 | 16.0 | 0.00 | 0.00 | 0.00 | 63 | 1002.2 |
| 20260509201605 | 64 | 155 | 6.0 | 18.0 | 0.00 | 0.00 | 0.00 | 61 | 1002.3 |
| 20260509200604 | 65 | 134 | 7.0 | 16.0 | 0.00 | 0.00 | 0.00 | 59 | 1002.4 |
| 20260509194605 | 66 | 186 | 10.0 | 16.0 | 0.00 | 0.00 | 0.00 | 56 | 1002.6 |
| 20260509192606 | 64 | 180 | 8.0 | 20.0 | 0.00 | 0.00 | 0.00 | 60 | 1002.8 |
| 20260509191605 | 64 | 200 | 7.0 | 15.0 | 0.00 | 0.00 | 0.00 | 60 | 1003.0 |
| 20260509190605 | 64 | 180 | 8.0 | 16.0 | 0.00 | 0.00 | 0.00 | 58 | 1003.2 |
| 20260509185605 | 64 | 169 | 7.0 | 16.0 | 0.00 | 0.00 | 0.00 | 58 | 1003.3 |
| 20260509184606 | 65 | 206 | 6.0 | 20.0 | 0.00 | 0.00 | 0.00 | 55 | 1003.4 |
| 20260509183605 | 65 | 158 | 7.0 | 14.0 | 0.00 | 0.00 | 0.00 | 54 | 1003.5 |
| 20260509182605 | 65 | 199 | 5.0 | 16.0 | 0.00 | 0.00 | 0.00 | 55 | 1003.4 |
| 20260509181605 | 65 | 118 | 7.0 | 13.0 | 0.00 | 0.00 | 0.00 | 53 | 1003.7 |
| 20260509180604 | 65 | 136 | 4.0 | 15.0 | 0.00 | 0.00 | 0.00 | 54 | 1003.6 |
| 20260509175605 | 65 | 120 | 6.0 | 16.0 | 0.00 | 0.00 | 0.00 | 50 | 1003.9 |
| 20260509174605 | 64 | 120 | 10.0 | 20.0 | 0.00 | 0.00 | 0.00 | 51 | 1003.9 |
| 20260509172605 | 64 | 181 | 6.0 | 16.0 | 0.00 | 0.00 | 0.00 | 53 | 1004.3 |
| 20260509171605 | 63 | 119 | 6.0 | 17.0 | 0.00 | 0.00 | 0.00 | 51 | 1004.4 |
| 20260509165605 | 63 | 134 | 10.0 | 18.0 | 0.00 | 0.00 | 0.00 | 45 | 1004.3 |
| 20260509164605 | 64 | 164 | 7.0 | 16.0 | 0.00 | 0.00 | 0.00 | 47 | 1004.3 |
| 20260509162604 | 64 | 141 | 7.0 | 22.0 | 0.00 | 0.00 | 0.00 | 52 | 1004.8 |
| 20260509161604 | 63 | 197 | 8.0 | 18.0 | 0.00 | 0.00 | 0.00 | 50 | 1004.9 |
| 20260509160605 | 63 | 112 | 9.0 | 14.0 | 0.00 | 0.00 | 0.00 | 51 | 1005.0 |
| 20260509155605 | 63 | 181 | 9.0 | 16.0 | 0.00 | 0.00 | 0.00 | 53 | 1005.2 |
| 20260509154605 | 63 | 190 | 7.0 | 14.0 | 0.00 | 0.00 | 0.00 | 54 | 1005.4 |
| 20260509153605 | 63 | 138 | 6.0 | 13.0 | 0.00 | 0.00 | 0.00 | 52 | 1005.5 |
| 20260509151605 | 60 | 127 | 7.0 | 20.0 | 0.00 | 0.00 | 0.00 | 57 | 1005.9 |
| 20260509150604 | 60 | 126 | 7.0 | 15.0 | 0.00 | 0.00 | 0.00 | 57 | 1005.9 |
| 20260509145606 | 60 | 136 | 7.0 | 16.0 | 0.00 | 0.00 | 0.00 | 56 | 1006.2 |
| 20260509144605 | 59 | 160 | 5.0 | 13.0 | 0.00 | 0.00 | 0.00 | 60 | 1006.2 |
| 20260509143605 | 58 | 98 | 6.0 | 13.0 | 0.00 | 0.00 | 0.00 | 60 | 1006.2 |
| 20260509142604 | 59 | 103 | 7.0 | 15.0 | 0.00 | 0.00 | 0.00 | 60 | 1006.4 |
| 20260509135605 | 58 | 187 | 6.0 | 12.0 | 0.00 | 0.00 | 0.00 | 61 | 1006.5 |
| 20260509134604 | 58 | 149 | 3.0 | 10.0 | 0.00 | 0.00 | 0.00 | 60 | 1006.5 |
| 20260509133605 | 57 | 149 | 7.0 | 13.0 | 0.00 | 0.00 | 0.00 | 60 | 1006.6 |
| 20260509132604 | 57 | 166 | 5.0 | 13.0 | 0.00 | 0.00 | 0.00 | 62 | 1006.7 |
| 20260509131604 | 57 | 156 | 7.0 | 12.0 | 0.00 | 0.00 | 0.00 | 63 | 1006.9 |
| 20260509130604 | 55 | 177 | 2.0 | 12.0 | 0.00 | 0.00 | 0.00 | 69 | 1006.9 |
| 20260509125605 | 53 | 359 | 6.0 | 9.0 | 0.00 | 0.00 | 0.00 | 72 | 1006.9 |
| 20260509124604 | 50 | 359 | 2.0 | 7.0 | 0.00 | 0.00 | 0.00 | 78 | 1006.8 |
| 20260509123604 | 49 | 359 | 3.0 | 8.0 | 0.00 | 0.00 | 0.00 | 75 | 1006.9 |
| 20260509122606 | 48 | 359 | 1.0 | 6.0 | 0.00 | 0.00 | 0.00 | 78 | 1006.9 |
| 20260509121605 | 47 | 359 | 1.0 | 6.0 | 0.00 | 0.00 | 0.00 | 82 | 1007.0 |
| 20260509120604 | 46 | 359 | 1.0 | 3.0 | 0.00 | 0.00 | 0.00 | 86 | 1007.2 |
| 20260509115604 | 43 | 359 | 1.0 | 3.0 | 0.00 | 0.00 | 0.00 | 93 | 1007.2 |
| 20260509114605 | 41 | 359 | 0.0 | 2.0 | 0.00 | 0.00 | 0.00 | 94 | 1007.3 |
| 20260509113605 | 39 | 359 | 0.0 | 0.0 | 0.00 | 0.00 | 0.00 | 97 | 1007.2 |
| 20260509112605 | 37 | 359 | 0.0 | 0.0 | 0.00 | 0.00 | 0.00 | 96 | 1007.3 |
| 20260509111604 | 36 | 359 | 0.0 | 0.0 | 0.00 | 0.00 | 0.00 | 93 | 1007.2 |
| 20260509105605 | 34 | 222 | 0.0 | 0.0 | 0.00 | 0.00 | 0.00 | 93 | 1007.2 |
| 20260509104604 | 33 | 222 | 0.0 | 0.0 | 0.00 | 0.00 | 0.00 | 97 | 1007.0 |
| 20260509103604 | 31 | 222 | 0.0 | 0.0 | 0.00 | 0.00 | 0.00 | 97 | 1007.0 |
| 20260509102604 | 30 | 222 | 0.0 | 0.0 | 0.00 | 0.00 | 0.00 | 96 | 1007.0 |
| 20260509101604 | 29 | 222 | 0.0 | 0.0 | 0.00 | 0.00 | 0.00 | 96 | 1007.0 |
| 20260509100604 | 29 | 222 | 0.0 | 0.0 | 0.00 | 0.00 | 0.00 | 95 | 1006.9 |